Home > Weather > Huelva > Past weeks

Flag for Spain Past Weather in Huelva, Spain — Yesterday and Last 2 Weeks

Now
72 °F

Passing clouds.


Feels Like: 67 °F
Forecast: 66 / 92 °F
Wind: 7 mph from South

Location: Rota Airport

Current Time: Jul 28, 2016 at 2:58:46 AM

Latest Report: Jul 28, 2016 at 2:00 AM


Visibility: 5 mi

Pressure: 30.01 "Hg

Humidity: 94%

Dew Point: 70 °F

Location of HuelvaLocation

Past Weather in Huelva — Graph

°F

Huelva Temperature Yesterday

Maximum temperature yesterday: 79 °F (at 12:00 AM)
Minimum temperature yesterday: 73 °F (at 6:00 AM)
Average temperature yesterday: 75 °F

High & Low Weather Summary for the Past Weeks

 TemperatureHumidityPressure
High97 °F (Jul 25, 3:00 PM)94% (Jul 21, 4:00 AM)30.07 "Hg (Jul 21, 4:00 AM)
Low66 °F (Jul 21, 8:00 AM)23% (Jul 17, 4:00 PM)29.89 "Hg (Jul 18, 7:00 PM)
Average80 °F55%29.97 "Hg
* Reported Jul 13 1:00 AM — Jul 28 1:00 AM, Huelva, Weather by CustomWeather, © 2016

Note: Actual official high and low records may vary slightly from our data, if they occured in-between our weather recording intervals... More about our weather records

Advertising

Huelva Weather History for the Previous 24 Hours

Scroll right to see more
 ConditionsComfort  
Time TempWeatherWind HumidityBarometerVisibility
1:00 AM
Thu, Jul 28
72 °FPassing clouds.5 mph94%30.01 "Hg5 mi
11:00 PM
Wed, Jul 27
73 °FClear.5 mph89%29.98 "Hg10 mi
10:00 PM73 °FSunny.6 mph89%29.98 "Hg10 mi
9:00 PM75 °FSunny.8 mph83%29.98 "Hg10 mi
8:00 PM77 °FPassing clouds.9 mph79%29.98 "HgN/A
7:00 PM77 °FPassing clouds.10 mph83%29.98 "HgN/A
6:00 PM77 °FPassing clouds.9 mph79%30.01 "HgN/A
5:00 PM77 °FPassing clouds.9 mph79%30.01 "HgN/A
4:00 PM77 °FPassing clouds.9 mph79%30.04 "HgN/A
3:00 PM77 °FPassing clouds.8 mph79%30.04 "HgN/A
2:00 PM77 °FScattered clouds.9 mph79%30.04 "HgN/A
1:00 PM75 °FPartly sunny.10 mph83%30.04 "HgN/A
12:00 PM75 °FLow clouds.10 mph83%30.04 "Hg5 mi
11:00 AM73 °FLow clouds.10 mph89%30.04 "Hg5 mi
10:00 AM73 °FBroken clouds.12 mph89%30.04 "Hg4 mi
9:00 AM73 °FPartly sunny.9 mph94%30.01 "Hg5 mi
8:00 AM73 °FPassing clouds.9 mph94%30.01 "Hg5 mi
7:00 AM73 °FPassing clouds.10 mph89%30.01 "Hg5 mi
6:00 AM73 °FPassing clouds.8 mph89%29.98 "HgN/A
5:00 AM75 °FPassing clouds.7 mph83%30.01 "HgN/A
4:00 AM75 °FClear.5 mph78%30.01 "Hg10 mi
3:00 AM75 °FPassing clouds.3 mph78%30.01 "HgN/A
2:00 AM75 °FClear.2 mph78%30.04 "Hg10 mi
Weather by CustomWeather, © 2016

See weather overviewHow to use our weather pages